,,,PA_Meas_PMT16A,,PR_Meas_QMR101_102,,RH_Meas_QMH101,,SR_Meas_QMS101,,TA_Meas_QMH101,,GenWind,,GenWind,
date,time,status,PA,status,PR,status,RH,status,SR,status,TA,status,DirAvg,status,SpdAvg,
2010-09-14, 00:00:04,VALID,1005.92,VALID,0,INVALID,121.07,VALID,0,VALID,24.0132,VALID,276,VALID,0.0359375,
2010-09-14, 00:01:04,VALID,1005.9,VALID,0.5,INVALID,120.895,VALID,0,VALID,24.0326,VALID,239,VALID,0.748047,
2010-09-14, 00:02:04,VALID,1005.92,VALID,0.5,INVALID,120.834,VALID,0,VALID,23.9742,VALID,220,VALID,0.864453,
2010-09-14, 00:03:04,VALID,1005.89,VALID,0,INVALID,120.719,VALID,0,VALID,23.9937,VALID,220,VALID,0.526563,
2010-09-14, 00:04:04,VALID,1005.83,VALID,0.5,INVALID,120.613,VALID,0,VALID,23.9566,VALID,220,VALID,0.764453,
2010-09-14, 00:05:04,VALID,1005.79,VALID,0.5,INVALID,120.437,VALID,0,VALID,23.9353,VALID,220,VALID,0.254297,
2010-09-14, 00:06:04,VALID,1005.8,VALID,0,INVALID,120.208,VALID,0.100563,VALID,23.9353,VALID,280,VALID,0.802344,
2010-09-14, 00:07:04,VALID,1005.81,VALID,0,INVALID,120.025,VALID,0,VALID,23.9353,VALID,285,VALID,0.187109,
2010-09-14, 00:08:04,VALID,1005.83,VALID,0.5,INVALID,119.85,VALID,0,VALID,23.9159,VALID,345,VALID,0.856641,
2010-09-14, 00:09:04,VALID,1005.85,VALID,0,INVALID,119.674,VALID,0.100563,VALID,23.9159,VALID,357,VALID,1.01563,
2010-09-14, 00:10:04,VALID,1005.88,VALID,0,INVALID,119.529,VALID,0,VALID,23.9159,VALID,354,VALID,1.07539,
2010-09-14, 00:11:04,VALID,1005.9,VALID,0,INVALID,119.468,VALID,0,VALID,23.8575,VALID,360,VALID,1.01211,
2010-09-14, 00:12:04,VALID,1005.89,VALID,0,INVALID,119.4,VALID,0,VALID,23.8575,VALID,359,VALID,0.930859,
2010-09-14, 00:13:04,VALID,1005.92,VALID,0,INVALID,119.262,VALID,0.100563,VALID,23.838,VALID,357,VALID,0.803906,
2010-09-14, 00:14:04,VALID,1005.92,VALID,0,INVALID,119.102,VALID,0,VALID,23.8185,VALID,346,VALID,0.376172,
2010-09-14, 00:15:04,VALID,1005.9,VALID,0,INVALID,118.934,VALID,0,VALID,23.7973,VALID,346,VALID,0,
2010-09-14, 00:16:04,VALID,1005.85,VALID,0,INVALID,118.751,VALID,0,VALID,23.8185,VALID,346,VALID,0,
2010-09-14, 00:17:04,VALID,1005.84,VALID,0,INVALID,118.53,VALID,0,VALID,23.8593,VALID,346,VALID,0,
2010-09-14, 00:18:04,VALID,1005.86,VALID,0.5,INVALID,118.423,VALID,0.100563,VALID,23.8575,VALID,314,VALID,0,
2010-09-14, 00:19:04,VALID,1005.87,VALID,0,INVALID,118.339,VALID,0,VALID,23.838,VALID,224,VALID,0,
2010-09-14, 00:20:04,VALID,1005.89,VALID,0,INVALID,118.187,VALID,0,VALID,23.8593,VALID,173,VALID,0.966797,
2010-09-14, 00:21:04,VALID,1005.9,VALID,0.5,INVALID,118.072,VALID,0,VALID,23.838,VALID,186,VALID,0.9375,
2010-09-14, 00:22:04,VALID,1005.91,VALID,0,INVALID,117.942,VALID,0,VALID,23.838,VALID,165,VALID,1.10664,
2010-09-14, 00:23:04,VALID,1005.91,VALID,0.5,INVALID,117.874,VALID,0,VALID,23.8398,VALID,173,VALID,1.34141,
2010-09-14, 00:24:04,VALID,1005.93,VALID,0,INVALID,117.782,VALID,0,VALID,23.7991,VALID,165,VALID,1.41172,
2010-09-14, 00:25:04,VALID,1005.95,VALID,0,INVALID,117.698,VALID,0,VALID,23.7796,VALID,158,VALID,0.920313,
2010-09-14, 00:26:04,VALID,1005.95,VALID,0,INVALID,117.553,VALID,0,VALID,23.7991,VALID,135,VALID,1.11289,
2010-09-14, 00:27:04,VALID,1005.97,VALID,0,INVALID,117.447,VALID,0,VALID,23.7796,VALID,136,VALID,0.832812,
2010-09-14, 00:28:04,VALID,1005.96,VALID,0,INVALID,117.363,VALID,0,VALID,23.7796,VALID,140,VALID,0.7375,
2010-09-14, 00:29:04,VALID,1005.98,VALID,0,INVALID,117.233,VALID,0,VALID,23.7991,VALID,154,VALID,0.429688,
2010-09-14, 00:30:04,VALID,1005.93,VALID,0,INVALID,117.119,VALID,0,VALID,23.7796,VALID,125,VALID,0.822656,
2010-09-14, 00:31:04,VALID,1005.99,VALID,0,INVALID,117.05,VALID,0,VALID,23.7601,VALID,195,VALID,0.976172,
2010-09-14, 00:32:04,VALID,1006.02,VALID,0,INVALID,117.195,VALID,0,VALID,23.6628,VALID,141,VALID,1.14258,
2010-09-14, 00:33:04,VALID,1006.04,VALID,0,INVALID,117.172,VALID,0,VALID,23.6646,VALID,152,VALID,1.39375,
2010-09-14, 00:34:04,VALID,1006.1,VALID,0,INVALID,117.103,VALID,0,VALID,23.6044,VALID,157,VALID,1.40039,
2010-09-14, 00:35:04,VALID,1006.15,VALID,0.5,INVALID,116.989,VALID,0,VALID,23.6044,VALID,112,VALID,0.763281,
2010-09-14, 00:36:04,VALID,1006.18,VALID,0,INVALID,116.905,VALID,0,VALID,23.585,VALID,125,VALID,1.14531,
2010-09-14, 00:37:04,VALID,1006.21,VALID,0.5,INVALID,116.813,VALID,0,VALID,23.5637,VALID,108,VALID,0.987109,
2010-09-14, 00:38:04,VALID,1006.19,VALID,0.5,INVALID,116.714,VALID,0,VALID,23.5868,VALID,149,VALID,1.35703,
2010-09-14, 00:39:04,VALID,1006.1,VALID,0.5,INVALID,116.684,VALID,0,VALID,23.546,VALID,197,VALID,1.6043,
2010-09-14, 00:40:04,VALID,1006.07,VALID,0,INVALID,116.653,VALID,0,VALID,23.5284,VALID,204,VALID,1.25352,
2010-09-14, 00:41:04,VALID,1006.09,VALID,0,INVALID,116.546,VALID,0,VALID,23.5266,VALID,205,VALID,1.24961,
2010-09-14, 00:42:04,VALID,1006.13,VALID,0.5,INVALID,116.379,VALID,0,VALID,23.546,VALID,182,VALID,1.66211,
2010-09-14, 00:43:04,VALID,1006.19,VALID,0,INVALID,116.234,VALID,0,VALID,23.5868,VALID,130,VALID,0.889844,
2010-09-14, 00:44:04,VALID,1006.27,VALID,0.5,INVALID,116.119,VALID,0,VALID,23.585,VALID,96,VALID,1.32422,
2010-09-14, 00:45:04,VALID,1006.37,VALID,0,INVALID,116.005,VALID,0,VALID,23.585,VALID,82,VALID,1.06602,
2010-09-14, 00:46:04,VALID,1006.46,VALID,0.5,INVALID,115.867,VALID,0,VALID,23.6452,VALID,100,VALID,2.00938,
2010-09-14, 00:47:04,VALID,1006.4,VALID,1,INVALID,115.753,VALID,0,VALID,23.6434,VALID,68,VALID,1.22383,
2010-09-14, 00:48:04,VALID,1006.39,VALID,0.5,INVALID,115.684,VALID,0,VALID,23.6452,VALID,70,VALID,0.697656,
2010-09-14, 00:49:04,VALID,1006.35,VALID,0,INVALID,115.646,VALID,0,VALID,23.6452,VALID,117,VALID,0.423438,
2010-09-14, 00:50:04,VALID,1006.35,VALID,0.5,INVALID,115.57,VALID,0,VALID,23.6452,VALID,172,VALID,1.23086,
2010-09-14, 00:51:04,VALID,1006.35,VALID,0,INVALID,115.486,VALID,0,VALID,23.6434,VALID,186,VALID,1.26914,
2010-09-14, 00:52:04,VALID,1006.36,VALID,0.5,INVALID,115.379,VALID,0,VALID,23.6841,VALID,151,VALID,1.56094,
2010-09-14, 00:53:04,VALID,1006.42,VALID,0,INVALID,115.272,VALID,0,VALID,23.6841,VALID,149,VALID,1.02734,
2010-09-14, 00:54:04,VALID,1006.45,VALID,0,INVALID,115.196,VALID,0,VALID,23.6628,VALID,132,VALID,0.65,
2010-09-14, 00:55:04,VALID,1006.48,VALID,0.5,INVALID,115.12,VALID,0,VALID,23.7035,VALID,114,VALID,0.930469,
2010-09-14, 00:56:04,VALID,1006.5,VALID,0,INVALID,115.074,VALID,0,VALID,23.6823,VALID,129,VALID,1.38008,
2010-09-14, 00:57:04,VALID,1006.51,VALID,0,INVALID,114.99,VALID,0,VALID,23.723,VALID,127,VALID,0.830859,
2010-09-14, 00:58:04,VALID,1006.52,VALID,0,INVALID,114.914,VALID,0,VALID,23.723,VALID,111,VALID,0.757422,
2010-09-14, 00:59:04,VALID,1006.53,VALID,0.5,INVALID,114.822,VALID,0,VALID,23.7619,VALID,119,VALID,1.33281,
2010-09-14, 01:00:04,VALID,1006.54,VALID,0,INVALID,114.7,VALID,0,VALID,23.7814,VALID,99,VALID,0.771875,
2010-09-14, 01:01:04,VALID,1006.57,VALID,0.5,INVALID,114.654,VALID,0,VALID,23.7407,VALID,134,VALID,1.23984,
2010-09-14, 01:02:04,VALID,1006.58,VALID,0.5,INVALID,114.555,VALID,0,VALID,23.7814,VALID,142,VALID,1.20352,
2010-09-14, 01:03:04,VALID,1006.59,VALID,1,INVALID,114.479,VALID,0,VALID,23.8009,VALID,125,VALID,1.78711,
2010-09-14, 01:04:04,VALID,1006.57,VALID,1,INVALID,114.441,VALID,0,VALID,23.7601,VALID,135,VALID,1.37852,
2010-09-14, 01:05:04,VALID,1006.53,VALID,1,INVALID,114.387,VALID,0,VALID,23.7814,VALID,145,VALID,1.36055,
2010-09-14, 01:06:04,VALID,1006.46,VALID,1,INVALID,114.311,VALID,0,VALID,23.7814,VALID,178,VALID,1.5582,
2010-09-14, 01:07:04,VALID,1006.46,VALID,0.5,INVALID,114.242,VALID,0,VALID,23.7601,VALID,172,VALID,2.18398,
2010-09-14, 01:08:04,VALID,1006.44,VALID,1,INVALID,114.197,VALID,0,VALID,23.7619,VALID,182,VALID,1.82227,
2010-09-14, 01:09:04,VALID,1006.39,VALID,1.5,INVALID,114.159,VALID,0,VALID,23.7601,VALID,197,VALID,1.86523,
2010-09-14, 01:10:04,VALID,1006.34,VALID,1,INVALID,114.067,VALID,0,VALID,23.7814,VALID,200,VALID,1.81133,
2010-09-14, 01:11:04,VALID,1006.29,VALID,1,INVALID,113.998,VALID,0,VALID,23.7814,VALID,209,VALID,1.49766,
2010-09-14, 01:12:04,VALID,1006.25,VALID,0.5,INVALID,113.937,VALID,0,VALID,23.7814,VALID,210,VALID,1.33984,
2010-09-14, 01:13:04,VALID,1006.22,VALID,0.5,INVALID,113.869,VALID,0,VALID,23.8009,VALID,204,VALID,1.99063,
2010-09-14, 01:14:04,VALID,1006.23,VALID,0.5,INVALID,113.777,VALID,0,VALID,23.8009,VALID,200,VALID,1.10508,
2010-09-14, 01:15:04,VALID,1006.26,VALID,0.5,INVALID,113.731,VALID,0,VALID,23.7991,VALID,151,VALID,1.70234,
2010-09-14, 01:16:04,VALID,1006.3,VALID,0.5,INVALID,113.663,VALID,0,VALID,23.7991,VALID,171,VALID,1.22383,
2010-09-14, 01:17:04,VALID,1006.38,VALID,0,INVALID,113.586,VALID,0,VALID,23.8185,VALID,148,VALID,1.36328,
2010-09-14, 01:18:04,VALID,1006.42,VALID,0.5,INVALID,113.51,VALID,0,VALID,23.8185,VALID,133,VALID,1.44922,
2010-09-14, 01:19:04,VALID,1006.46,VALID,0.5,INVALID,113.449,VALID,0,VALID,23.838,VALID,148,VALID,2.39219,
2010-09-14, 01:20:04,VALID,1006.47,VALID,0.5,INVALID,113.388,VALID,0,VALID,23.8398,VALID,160,VALID,1.59102,
2010-09-14, 01:21:04,VALID,1006.51,VALID,0.5,INVALID,113.342,VALID,0,VALID,23.8593,VALID,139,VALID,1.52188,
2010-09-14, 01:22:04,VALID,1006.51,VALID,0,INVALID,113.251,VALID,0,VALID,23.8787,VALID,153,VALID,1.28242,
2010-09-14, 01:23:04,VALID,1006.55,VALID,0.5,INVALID,113.235,VALID,0,VALID,23.8593,VALID,143,VALID,2.14141,
2010-09-14, 01:24:04,VALID,1006.56,VALID,0.5,INVALID,113.197,VALID,0,VALID,23.8398,VALID,156,VALID,1.43711,
2010-09-14, 01:25:04,VALID,1006.53,VALID,0,INVALID,113.167,VALID,0,VALID,23.8009,VALID,173,VALID,1.90703,
2010-09-14, 01:26:04,VALID,1006.47,VALID,0.5,INVALID,113.159,VALID,0,VALID,23.7814,VALID,189,VALID,1.7418,
2010-09-14, 01:27:04,VALID,1006.41,VALID,0.5,INVALID,113.091,VALID,0,VALID,23.7601,VALID,176,VALID,1.64766,
2010-09-14, 01:28:04,VALID,1006.36,VALID,0.5,INVALID,113.052,VALID,0,VALID,23.7619,VALID,192,VALID,2.65313,
2010-09-14, 01:29:04,VALID,1006.33,VALID,1,INVALID,112.984,VALID,0,VALID,23.7619,VALID,192,VALID,2.18086,
2010-09-14, 01:30:04,VALID,1006.33,VALID,0.5,INVALID,112.938,VALID,0,VALID,23.7814,VALID,214,VALID,1.98672,
2010-09-14, 01:31:04,VALID,1006.39,VALID,0.5,INVALID,112.869,VALID,0,VALID,23.7814,VALID,167,VALID,2.68203,
2010-09-14, 01:32:04,VALID,1006.48,VALID,0.5,INVALID,112.846,VALID,0,VALID,23.723,VALID,141,VALID,2.13633,
2010-09-14, 01:33:04,VALID,1006.56,VALID,0.5,INVALID,112.831,VALID,0,VALID,23.7035,VALID,150,VALID,1.80547,
2010-09-14, 01:34:04,VALID,1006.59,VALID,0.5,INVALID,112.762,VALID,0,VALID,23.7017,VALID,138,VALID,1.32969,
2010-09-14, 01:35:04,VALID,1006.62,VALID,0.5,INVALID,112.747,VALID,0,VALID,23.6823,VALID,134,VALID,1.69453,
2010-09-14, 01:36:04,VALID,1006.69,VALID,0.5,INVALID,112.701,VALID,0,VALID,23.6841,VALID,127,VALID,1.52617,
2010-09-14, 01:37:04,VALID,1006.73,VALID,0,INVALID,112.679,VALID,0,VALID,23.6434,VALID,124,VALID,1.13516,
2010-09-14, 01:38:04,VALID,1006.79,VALID,0.5,INVALID,112.64,VALID,0,VALID,23.6239,VALID,119,VALID,1.49102,
2010-09-14, 01:39:04,VALID,1006.8,VALID,0,INVALID,112.61,VALID,0,VALID,23.6257,VALID,131,VALID,0.952734,
2010-09-14, 01:40:04,VALID,1006.77,VALID,0.5,INVALID,112.557,VALID,0,VALID,23.6257,VALID,125,VALID,1.03164,
2010-09-14, 01:41:04,VALID,1006.78,VALID,0.5,INVALID,112.526,VALID,0,VALID,23.585,VALID,104,VALID,0.617969,
2010-09-14, 01:42:04,VALID,1006.76,VALID,0.5,INVALID,112.48,VALID,0,VALID,23.5655,VALID,101,VALID,0.79375,
2010-09-14, 01:43:04,VALID,1006.71,VALID,0,INVALID,112.465,VALID,0,VALID,23.5673,VALID,98,VALID,1.23477,
2010-09-14, 01:44:04,VALID,1006.69,VALID,0.5,INVALID,112.419,VALID,0,VALID,23.5478,VALID,111,VALID,0.859766,
2010-09-14, 01:45:04,VALID,1006.69,VALID,0.5,INVALID,112.373,VALID,0,VALID,23.5673,VALID,97,VALID,0.336719,
2010-09-14, 01:46:04,VALID,1006.64,VALID,0.5,INVALID,112.32,VALID,0,VALID,23.5478,VALID,97,VALID,0.00507812,
2010-09-14, 01:47:04,VALID,1006.62,VALID,0.5,INVALID,112.274,VALID,0,VALID,23.5691,VALID,97,VALID,0.266797,
2010-09-14, 01:48:04,VALID,1006.62,VALID,0.5,INVALID,112.236,VALID,0,VALID,23.5673,VALID,97,VALID,0.452734,
2010-09-14, 01:49:04,VALID,1006.61,VALID,0,INVALID,112.198,VALID,0,VALID,23.5655,VALID,166,VALID,0.957812,
2010-09-14, 01:50:04,VALID,1006.61,VALID,0,INVALID,112.152,VALID,0,VALID,23.5673,VALID,177,VALID,0.738281,
2010-09-14, 01:51:04,VALID,1006.53,VALID,0.5,INVALID,112.091,VALID,0,VALID,23.5868,VALID,185,VALID,0.572656,
2010-09-14, 01:52:04,VALID,1006.56,VALID,0,INVALID,112.03,VALID,0,VALID,23.585,VALID,185,VALID,0.772266,
2010-09-14, 01:53:04,VALID,1006.48,VALID,0.5,INVALID,111.977,VALID,0,VALID,23.6062,VALID,182,VALID,0.747656,
2010-09-14, 01:54:04,VALID,1006.47,VALID,0,INVALID,111.916,VALID,0,VALID,23.6257,VALID,182,VALID,0.272266,
2010-09-14, 01:55:04,VALID,1006.41,VALID,0,INVALID,111.878,VALID,0,VALID,23.6239,VALID,286,VALID,0.523047,
2010-09-14, 01:56:04,VALID,1006.35,VALID,0,INVALID,111.778,VALID,0,VALID,23.6221,VALID,289,VALID,0.0835937,
2010-09-14, 01:57:04,VALID,1006.34,VALID,0.5,INVALID,111.748,VALID,0,VALID,23.6434,VALID,288,VALID,0,
2010-09-14, 01:58:04,VALID,1006.32,VALID,0,INVALID,111.694,VALID,0,VALID,23.6628,VALID,286,VALID,0.329297,
2010-09-14, 01:59:04,VALID,1006.3,VALID,0,INVALID,111.656,VALID,0,VALID,23.6628,VALID,287,VALID,0.180078,
2010-09-14, 02:00:04,VALID,1006.27,VALID,0.5,INVALID,111.649,VALID,0,VALID,23.6823,VALID,290,VALID,0.208984,
2010-09-14, 02:01:04,VALID,1006.26,VALID,0,INVALID,111.588,VALID,0,VALID,23.6628,VALID,355,VALID,0.535937,
2010-09-14, 02:02:04,VALID,1006.23,VALID,0,INVALID,111.572,VALID,0,VALID,23.6628,VALID,324,VALID,0.448438,
2010-09-14, 02:03:04,VALID,1006.22,VALID,0,INVALID,111.549,VALID,0,VALID,23.6628,VALID,332,VALID,0.172656,
2010-09-14, 02:04:04,VALID,1006.25,VALID,0.5,INVALID,111.519,VALID,0,VALID,23.6434,VALID,332,VALID,0,
2010-09-14, 02:05:04,VALID,1006.22,VALID,0,INVALID,111.496,VALID,0,VALID,23.6434,VALID,332,VALID,0,
2010-09-14, 02:06:04,VALID,1006.22,VALID,0,INVALID,111.473,VALID,0,VALID,23.6239,VALID,332,VALID,0,
2010-09-14, 02:07:04,VALID,1006.21,VALID,0,INVALID,111.427,VALID,0,VALID,23.6044,VALID,332,VALID,0,
2010-09-14, 02:08:04,VALID,1006.16,VALID,0,INVALID,111.397,VALID,0,VALID,23.6044,VALID,358,VALID,0,
2010-09-14, 02:09:04,VALID,1006.14,VALID,0,INVALID,111.389,VALID,0,VALID,23.6062,VALID,358,VALID,0,
2010-09-14, 02:10:04,VALID,1006.1,VALID,0,INVALID,111.359,VALID,0,VALID,23.5655,VALID,359,VALID,0,
2010-09-14, 02:11:04,VALID,1006.1,VALID,0.5,INVALID,111.359,VALID,0,VALID,23.546,VALID,358,VALID,0,
2010-09-14, 02:12:04,VALID,1006.05,VALID,0,INVALID,111.321,VALID,0,VALID,23.5673,VALID,358,VALID,0,
2010-09-14, 02:13:04,VALID,1006,VALID,0,INVALID,111.29,VALID,0,VALID,23.5673,VALID,358,VALID,0,
2010-09-14, 02:14:04,VALID,1005.92,VALID,0,INVALID,111.267,VALID,0,VALID,23.5478,VALID,358,VALID,0,
2010-09-14, 02:15:04,VALID,1005.95,VALID,0,INVALID,111.221,VALID,0,VALID,23.5478,VALID,358,VALID,0,
2010-09-14, 02:16:04,VALID,1005.92,VALID,0,INVALID,111.191,VALID,0,VALID,23.5266,VALID,358,VALID,0,
2010-09-14, 02:17:04,VALID,1005.89,VALID,0,INVALID,111.168,VALID,0,VALID,23.5266,VALID,358,VALID,0,
2010-09-14, 02:18:04,VALID,1005.84,VALID,0,INVALID,111.153,VALID,0,VALID,23.5071,VALID,358,VALID,0,
2010-09-14, 02:19:04,VALID,1005.82,VALID,0,INVALID,111.145,VALID,0,VALID,23.5089,VALID,358,VALID,0,
2010-09-14, 02:20:04,VALID,1005.77,VALID,0,INVALID,111.107,VALID,0,VALID,23.4877,VALID,358,VALID,0,
2010-09-14, 02:21:04,VALID,1005.76,VALID,0,INVALID,111.076,VALID,0,VALID,23.5071,VALID,358,VALID,0,
2010-09-14, 02:22:04,VALID,1005.74,VALID,0,INVALID,111.023,VALID,0,VALID,23.5071,VALID,358,VALID,0,
2010-09-14, 02:23:04,VALID,1005.69,VALID,0,INVALID,110.985,VALID,0,VALID,23.5071,VALID,358,VALID,0,
2010-09-14, 02:24:04,VALID,1005.67,VALID,0,INVALID,110.947,VALID,0,VALID,23.4877,VALID,358,VALID,0,
2010-09-14, 02:25:04,VALID,1005.64,VALID,0,INVALID,110.939,VALID,0,VALID,23.5071,VALID,358,VALID,0,
2010-09-14, 02:26:04,VALID,1005.61,VALID,0,INVALID,110.939,VALID,0,VALID,23.4877,VALID,358,VALID,0,
2010-09-14, 02:27:04,VALID,1005.61,VALID,0,INVALID,110.893,VALID,0,VALID,23.4877,VALID,358,VALID,0,
2010-09-14, 02:28:04,VALID,1005.59,VALID,0,INVALID,110.871,VALID,0,VALID,23.4487,VALID,358,VALID,0,
2010-09-14, 02:29:04,VALID,1005.59,VALID,0,INVALID,110.863,VALID,0.100563,VALID,23.4487,VALID,359,VALID,0,
2010-09-14, 02:30:04,VALID,1005.59,VALID,0,INVALID,110.855,VALID,0,VALID,23.4293,VALID,37,VALID,0.403906,
2010-09-14, 02:31:04,VALID,1005.55,VALID,0,INVALID,110.832,VALID,0,VALID,23.4293,VALID,46,VALID,0.513281,
2010-09-14, 02:32:04,VALID,1005.51,VALID,0,INVALID,110.802,VALID,0.100563,VALID,23.4098,VALID,47,VALID,0.207813,
2010-09-14, 02:33:04,VALID,1005.5,VALID,0,INVALID,110.802,VALID,0,VALID,23.4098,VALID,47,VALID,0.199609,
2010-09-14, 02:34:04,VALID,1005.53,VALID,0,INVALID,110.756,VALID,0,VALID,23.4098,VALID,70,VALID,0.371094,
2010-09-14, 02:35:04,VALID,1005.54,VALID,0,INVALID,110.726,VALID,0,VALID,23.3904,VALID,88,VALID,0.709375,
2010-09-14, 02:36:04,VALID,1005.56,VALID,0,INVALID,110.703,VALID,0,VALID,23.3904,VALID,95,VALID,0.627734,
2010-09-14, 02:37:04,VALID,1005.58,VALID,0,INVALID,110.695,VALID,0,VALID,23.3709,VALID,113,VALID,0.959766,
2010-09-14, 02:38:04,VALID,1005.59,VALID,0,INVALID,110.794,VALID,0,VALID,23.3904,VALID,100,VALID,0.449219,
2010-09-14, 02:39:04,VALID,1005.55,VALID,0,INVALID,110.794,VALID,0,VALID,23.3921,VALID,100,VALID,0.532031,
2010-09-14, 02:40:04,VALID,1005.56,VALID,0,INVALID,110.741,VALID,0,VALID,23.3921,VALID,100,VALID,0.532031,
2010-09-14, 02:41:04,VALID,1005.56,VALID,0,INVALID,110.695,VALID,0,VALID,23.3709,VALID,99,VALID,0.692578,
2010-09-14, 02:42:04,VALID,1005.56,VALID,0,INVALID,110.695,VALID,0,VALID,23.3709,VALID,105,VALID,0.442187,
2010-09-14, 02:43:04,VALID,1005.56,VALID,0,INVALID,110.665,VALID,0,VALID,23.3709,VALID,107,VALID,1.18008,
2010-09-14, 02:44:04,VALID,1005.53,VALID,0,INVALID,110.649,VALID,0,VALID,23.3709,VALID,105,VALID,0.967188,
2010-09-14, 02:45:04,VALID,1005.52,VALID,0,INVALID,110.611,VALID,0,VALID,23.4116,VALID,109,VALID,0.885156,
2010-09-14, 02:46:04,VALID,1005.5,VALID,0,INVALID,110.596,VALID,0,VALID,23.3691,VALID,104,VALID,0.583203,
2010-09-14, 02:47:04,VALID,1005.44,VALID,0,INVALID,110.573,VALID,0,VALID,23.3904,VALID,97,VALID,0.506641,
2010-09-14, 02:48:04,VALID,1005.44,VALID,0,INVALID,110.527,VALID,0,VALID,23.4098,VALID,86,VALID,0.794922,
2010-09-14, 02:49:04,VALID,1005.41,VALID,0,INVALID,110.504,VALID,0,VALID,23.4098,VALID,78,VALID,0.246875,
2010-09-14, 02:50:04,VALID,1005.37,VALID,0,INVALID,110.474,VALID,0,VALID,23.3904,VALID,78,VALID,0,
2010-09-14, 02:51:04,VALID,1005.35,VALID,0,INVALID,110.443,VALID,0,VALID,23.4116,VALID,78,VALID,0,
2010-09-14, 02:52:04,VALID,1005.33,VALID,0,INVALID,110.474,VALID,0.100563,VALID,23.3886,VALID,60,VALID,0,
2010-09-14, 02:53:04,VALID,1005.34,VALID,0,INVALID,110.451,VALID,0,VALID,23.3904,VALID,60,VALID,0,
2010-09-14, 02:54:04,VALID,1005.3,VALID,0,INVALID,110.398,VALID,0,VALID,23.3709,VALID,59,VALID,0,
2010-09-14, 02:55:04,VALID,1005.31,VALID,0,INVALID,110.375,VALID,0,VALID,23.4098,VALID,59,VALID,0,
2010-09-14, 02:56:04,VALID,1005.34,VALID,0,INVALID,110.344,VALID,0,VALID,23.4116,VALID,59,VALID,0,
2010-09-14, 02:57:04,VALID,1005.37,VALID,0,INVALID,110.329,VALID,0,VALID,23.3904,VALID,59,VALID,0,
2010-09-14, 02:58:04,VALID,1005.42,VALID,0,INVALID,110.321,VALID,0,VALID,23.3921,VALID,92,VALID,0,
2010-09-14, 02:59:04,VALID,1005.43,VALID,0,INVALID,110.306,VALID,0,VALID,23.4098,VALID,105,VALID,0,
2010-09-14, 03:00:04,VALID,1005.48,VALID,0,INVALID,110.275,VALID,0,VALID,23.4098,VALID,104,VALID,0,
2010-09-14, 03:01:04,VALID,1005.52,VALID,0,INVALID,110.268,VALID,0,VALID,23.4098,VALID,96,VALID,0,
2010-09-14, 03:02:04,VALID,1005.53,VALID,0,INVALID,110.253,VALID,0.100563,VALID,23.4116,VALID,94,VALID,0,
2010-09-14, 03:03:04,VALID,1005.56,VALID,0,INVALID,110.207,VALID,0,VALID,23.3904,VALID,91,VALID,0,
2010-09-14, 03:04:04,VALID,1005.59,VALID,0,INVALID,110.199,VALID,0,VALID,23.3904,VALID,85,VALID,0,
2010-09-14, 03:05:04,VALID,1005.6,VALID,0,INVALID,110.192,VALID,0,VALID,23.3904,VALID,59,VALID,0.388672,
2010-09-14, 03:06:04,VALID,1005.61,VALID,0,INVALID,110.146,VALID,0,VALID,23.3904,VALID,86,VALID,0.00898437,
2010-09-14, 03:07:04,VALID,1005.65,VALID,0,INVALID,110.138,VALID,0,VALID,23.4098,VALID,86,VALID,0,
2010-09-14, 03:08:04,VALID,1005.67,VALID,0,INVALID,110.108,VALID,0.100563,VALID,23.4293,VALID,86,VALID,0,
2010-09-14, 03:09:04,VALID,1005.7,VALID,0,INVALID,110.085,VALID,0,VALID,23.4098,VALID,86,VALID,0.00351562,
2010-09-14, 03:10:04,VALID,1005.7,VALID,0,INVALID,110.069,VALID,0,VALID,23.4098,VALID,86,VALID,0,
2010-09-14, 03:11:04,VALID,1005.71,VALID,0,INVALID,110.047,VALID,0,VALID,23.4098,VALID,86,VALID,0,
2010-09-14, 03:12:04,VALID,1005.75,VALID,0,INVALID,110.031,VALID,0,VALID,23.4098,VALID,86,VALID,0,
2010-09-14, 03:13:04,VALID,1005.7,VALID,0,INVALID,110.008,VALID,0,VALID,23.4293,VALID,33,VALID,0.328125,
2010-09-14, 03:14:04,VALID,1005.64,VALID,0,INVALID,109.97,VALID,0,VALID,23.4505,VALID,24,VALID,0.376172,
2010-09-14, 03:15:04,VALID,1005.56,VALID,0,INVALID,109.955,VALID,0,VALID,23.4487,VALID,356,VALID,0.583203,
2010-09-14, 03:16:04,VALID,1005.47,VALID,0,INVALID,109.925,VALID,0,VALID,23.4487,VALID,355,VALID,0.457812,
2010-09-14, 03:17:04,VALID,1005.42,VALID,0,INVALID,109.879,VALID,0,VALID,23.4682,VALID,354,VALID,0.182422,
2010-09-14, 03:18:04,VALID,1005.41,VALID,0,INVALID,109.856,VALID,0,VALID,23.4682,VALID,313,VALID,0.301953,
2010-09-14, 03:19:04,VALID,1005.38,VALID,0,INVALID,109.856,VALID,0,VALID,23.4877,VALID,313,VALID,0,
2010-09-14, 03:20:04,VALID,1005.31,VALID,0,INVALID,109.848,VALID,0,VALID,23.4682,VALID,313,VALID,0.0761719,
2010-09-14, 03:21:04,VALID,1005.32,VALID,0,INVALID,109.825,VALID,0,VALID,23.4682,VALID,310,VALID,0,
2010-09-14, 03:22:04,VALID,1005.31,VALID,0,INVALID,109.802,VALID,0,VALID,23.4682,VALID,310,VALID,0,
2010-09-14, 03:23:04,VALID,1005.24,VALID,0,INVALID,109.955,VALID,0,VALID,23.4664,VALID,310,VALID,0,
2010-09-14, 03:24:04,VALID,1005.17,VALID,0,INVALID,109.963,VALID,0,VALID,23.4877,VALID,310,VALID,0,
2010-09-14, 03:25:04,VALID,1005.17,VALID,0,INVALID,109.94,VALID,0,VALID,23.4877,VALID,310,VALID,0,
2010-09-14, 03:26:04,VALID,1005.17,VALID,0,INVALID,109.932,VALID,0,VALID,23.5071,VALID,310,VALID,0,
2010-09-14, 03:27:04,VALID,1005.17,VALID,0,INVALID,109.917,VALID,0,VALID,23.5089,VALID,310,VALID,0,
2010-09-14, 03:28:04,VALID,1005.17,VALID,0,INVALID,109.886,VALID,0,VALID,23.5266,VALID,310,VALID,0,
2010-09-14, 03:29:04,VALID,1005.17,VALID,0,INVALID,109.879,VALID,0,VALID,23.5478,VALID,310,VALID,0,
2010-09-14, 03:30:04,VALID,1005.16,VALID,0,INVALID,109.818,VALID,0,VALID,23.5266,VALID,310,VALID,0,
2010-09-14, 03:31:04,VALID,1005.16,VALID,0,INVALID,109.841,VALID,0,VALID,23.5266,VALID,304,VALID,0,
2010-09-14, 03:32:04,VALID,1005.15,VALID,0,INVALID,109.825,VALID,0,VALID,23.5266,VALID,305,VALID,0,
2010-09-14, 03:33:04,VALID,1005.2,VALID,0,INVALID,109.833,VALID,0.100563,VALID,23.5266,VALID,343,VALID,0,
2010-09-14, 03:34:04,VALID,1005.19,VALID,0,INVALID,109.848,VALID,0,VALID,23.5071,VALID,344,VALID,0,
2010-09-14, 03:35:04,VALID,1005.2,VALID,0,INVALID,109.81,VALID,0,VALID,23.4877,VALID,343,VALID,0,
2010-09-14, 03:36:04,VALID,1005.21,VALID,0,INVALID,109.81,VALID,0,VALID,23.4877,VALID,344,VALID,0,
2010-09-14, 03:37:04,VALID,1005.22,VALID,0,INVALID,109.78,VALID,0,VALID,23.4877,VALID,344,VALID,0,
2010-09-14, 03:38:04,VALID,1005.23,VALID,0.5,INVALID,109.78,VALID,0,VALID,23.4682,VALID,344,VALID,0,
2010-09-14, 03:39:04,VALID,1005.27,VALID,0,INVALID,109.734,VALID,0,VALID,23.4877,VALID,344,VALID,0,
2010-09-14, 03:40:04,VALID,1005.26,VALID,0,INVALID,109.749,VALID,0,VALID,23.4877,VALID,344,VALID,0,
2010-09-14, 03:41:04,VALID,1005.26,VALID,0,INVALID,109.703,VALID,0,VALID,23.4877,VALID,344,VALID,0,
2010-09-14, 03:42:04,VALID,1005.23,VALID,0,INVALID,109.726,VALID,0,VALID,23.4877,VALID,343,VALID,0,
2010-09-14, 03:43:04,VALID,1005.25,VALID,0,INVALID,109.726,VALID,0,VALID,23.4877,VALID,344,VALID,0,
2010-09-14, 03:44:04,VALID,1005.26,VALID,0,INVALID,109.665,VALID,0,VALID,23.4682,VALID,344,VALID,0,